Location: Beaver Brook Station
(42.3793°N, 71.2203°W)
Time: 05:49:23
(UTC+00:00)

X-37B - Pass Details

Date: 26 January 2021
Orbit: 383 x 391 km, 45.0° (Epoch: 27 February)

Event Time Altitude Azimuth Distance (km) Brightness Sun altitude
Rises 22:39:48 0° 278° (W) 2,271 5.8 -9.2°
Reaches altitude 10° 22:41:54 10° 284° (WNW) 1,418 4.4 -9.5°
Maximum altitude 22:45:01 49° 1° (N) 508 1.0 -10.1°
Enters shadow 22:47:18 17° 74° (ENE) 1,097 2.2 -10.5°
